Total_Precipitation_Accumulation
0.04 0.06 0.01 0.03 0.01 0.00 0.01 0.01 0.02 0.02 0.03 0.07 0.16 0.19 0.03 0.03 0.01 0.00 0.00 0.00 0.00 0.00
0.03 0.05 0.05 0.02 0.03 0.03 0.02 0.05 0.01 0.08 0.10 0.17 0.14 0.08 0.10 0.05 0.00 0.00 0.00 0.00 0.00 0.00
0.02 0.03 0.02 0.07 0.11 0.07 0.06 0.09 0.13 0.28 0.21 0.14 0.08 0.13 0.11 0.05 0.00 0.00 0.00 0.00 0.00 0.00
0.05 0.00 0.02 0.03 0.03 0.09 0.28 0.30 0.35 0.42 0.33 0.23 0.18 0.10 0.05 0.01 0.00 0.00 0.00 0.00 0.00 0.00
0.10 0.04 0.02 0.01 0.02 0.17 0.40 0.49 0.47 0.33 0.22 0.13 0.06 0.02 0.00 0.00 0.00 0.00 0.00 0.00 0.00 0.00
0.08 0.02 0.04 0.04 0.10 0.18 0.35 0.55 0.46 0.22 0.04 0.02 0.01 0.00 0.00 0.00 0.00 0.00 0.00 0.00 0.00 0.00
0.01 0.05 0.14 0.10 0.06 0.07 0.14 0.24 0.18 0.13 0.01 0.00 0.00 0.00 0.00 0.00 0.00 0.00 0.00 0.00 0.00 0.00
0.00 0.00 0.06 0.02 0.01 0.01 0.01 0.09 0.04 0.04 0.00 0.00 0.00 0.00 0.00 0.00 0.00 0.00 0.00 0.00 0.00 0.00
0.00 0.00 0.01 0.01 0.04 0.04 0.04 0.06 0.04 0.02 0.00 0.00 0.00 0.00 0.00 0.00 0.00 0.00 0.00 0.00 0.00 0.00
0.00 0.00 0.02 0.00 0.02 0.03 0.04 0.03 0.07 0.03 0.00 0.00 0.00 0.00 0.00 0.00 0.00 0.00 0.00 0.00 0.00 0.00
0.00 0.00 0.00 0.00 0.03 0.03 0.05 0.03 0.00 0.00 0.00 0.00 0.00 0.00 0.00 0.00 0.00 0.00 0.00 0.00 0.00 0.00
0.00 0.00 0.00 0.00 0.03 0.03 0.03 0.01 0.00 0.00 0.00 0.00 0.00 0.00 0.00 0.00 0.00 0.00 0.00 0.00 0.00 0.00
0.00 0.00 0.00 0.00 0.01 0.00 0.00 0.00 0.00 0.00 0.00 0.00 0.00 0.00 0.00 0.00 0.00 0.00 0.00 0.00 0.00 0.00
0.00 0.00 0.00 0.00 0.00 0.00 0.00 0.00 0.00 0.00 0.00 0.00 0.00 0.00 0.00 0.00 0.00 0.00 0.00 0.00 0.00 0.00